timestamp,wind_dir_avg,wind_spd_avg,wind_spd_max_dir,wind_spd_gust,battery_voltage,lat,long
2021-08-01 00:04:01+00:00,236.0,11.33,236.0,12.81,12.97,47.59359,-54.27349
2021-08-01 00:14:01+00:00,235.0,10.76,239.0,11.92,12.65,47.59359,-54.27349
2021-08-01 00:24:01+00:00,232.0,11.49,245.0,13.46,12.65,47.59359,-54.27349
2021-08-01 00:34:01+00:00,237.0,11.79,233.0,13.55,12.65,47.59359,-54.27349
2021-08-01 00:44:01+00:00,230.0,10.53,229.0,12.32,12.65,47.59359,-54.27349
2021-08-01 00:54:01+00:00,236.0,11.21,235.0,12.31,12.65,47.59359,-54.27349
2021-08-01 01:04:01+00:00,237.0,10.46,235.0,12.02,12.65,47.59359,-54.27349
2021-08-01 01:14:01+00:00,238.0,11.49,237.0,13.54,12.65,47.59359,-54.27349
2021-08-01 01:24:01+00:00,236.0,11.92,243.0,13.74,12.65,47.59359,-54.27349
2021-08-01 01:34:01+00:00,237.0,12.77,238.0,14.81,12.65,47.59359,-54.27349
2021-08-01 01:44:01+00:00,240.0,12.31,236.0,13.85,12.65,47.59359,-54.27349
2021-08-01 01:54:01+00:00,241.0,12.23,243.0,14.73,12.65,47.59359,-54.27349
2021-08-01 02:04:01+00:00,238.0,12.89,245.0,15.6,12.65,47.59359,-54.27349
2021-08-01 02:14:01+00:00,241.0,12.39,237.0,15.04,12.65,47.59359,-54.27349
2021-08-01 02:24:01+00:00,236.0,11.86,236.0,13.8,12.65,47.59359,-54.27349
2021-08-01 02:34:01+00:00,238.0,11.21,239.0,13.39,12.65,47.59359,-54.27349
2021-08-01 02:44:01+00:00,234.0,10.1,234.0,11.95,12.65,47.59359,-54.27349
2021-08-01 02:54:01+00:00,231.0,10.95,229.0,12.02,12.65,47.59359,-54.27349
2021-08-01 03:04:01+00:00,231.0,10.49,230.0,12.18,12.65,47.59359,-54.27349
2021-08-01 03:14:01+00:00,233.0,9.26,230.0,10.39,12.57,47.59359,-54.27349
2021-08-01 03:24:01+00:00,230.0,9.13,230.0,10.6,12.57,47.59359,-54.27349
2021-08-01 03:34:01+00:00,230.0,8.59,225.0,10.07,12.57,47.59359,-54.27349
2021-08-01 03:44:01+00:00,231.0,9.6,231.0,10.86,12.57,47.59359,-54.27349
2021-08-01 03:54:01+00:00,232.0,8.81,230.0,10.15,12.57,47.59359,-54.27349
2021-08-01 04:04:01+00:00,231.0,7.78,232.0,9.27,12.57,47.59359,-54.27349
2021-08-01 04:14:01+00:00,230.0,8.61,231.0,10.03,12.57,47.59359,-54.27349
2021-08-01 04:24:01+00:00,228.0,8.58,235.0,10.6,12.57,47.59359,-54.27349
2021-08-01 04:34:01+00:00,225.0,9.19,218.0,10.53,12.57,47.59359,-54.27349
2021-08-01 04:44:01+00:00,227.0,8.83,226.0,10.68,12.57,47.59359,-54.27349
2021-08-01 04:54:01+00:00,229.0,7.69,229.0,8.88,12.57,47.59359,-54.27349
2021-08-01 05:04:01+00:00,230.0,9.2,232.0,10.33,12.57,47.59359,-54.27349
2021-08-01 05:14:00+00:00,234.0,8.9,233.0,10.72,12.57,47.59359,-54.27349
2021-08-01 05:24:00+00:00,228.0,8.87,235.0,10.12,12.57,47.59359,-54.27349
2021-08-01 05:34:00+00:00,230.0,9.61,236.0,10.87,12.57,47.59359,-54.27349
2021-08-01 05:44:00+00:00,226.0,8.63,231.0,10.45,12.57,47.59359,-54.27349
2021-08-01 05:54:00+00:00,229.0,9.18,228.0,11.07,12.57,47.59359,-54.27349
2021-08-01 06:04:00+00:00,229.0,8.83,230.0,10.7,12.57,47.59359,-54.27349
2021-08-01 06:14:00+00:00,229.0,9.15,232.0,10.52,12.57,47.59359,-54.27349
2021-08-01 06:24:00+00:00,231.0,8.24,231.0,9.55,12.57,47.59359,-54.27349
2021-08-01 06:34:00+00:00,232.0,8.58,232.0,10.15,12.57,47.59359,-54.27349
2021-08-01 06:44:00+00:00,231.0,8.39,229.0,9.59,12.57,47.59359,-54.27349
2021-08-01 06:54:00+00:00,229.0,8.82,222.0,10.54,12.57,47.59359,-54.27349
2021-08-01 07:04:00+00:00,232.0,8.72,232.0,9.9,12.57,47.59359,-54.27349
2021-08-01 07:14:01+00:00,233.0,7.93,233.0,9.5,12.57,47.59359,-54.27349
2021-08-01 07:24:01+00:00,234.0,7.74,232.0,8.47,12.57,47.59359,-54.27349
2021-08-01 07:34:01+00:00,234.0,8.27,232.0,9.8,12.57,47.59359,-54.27349
2021-08-01 07:44:01+00:00,241.0,7.29,237.0,8.14,12.57,47.59359,-54.27349
2021-08-01 07:54:01+00:00,247.0,9.18,241.0,10.22,12.57,47.59359,-54.27349
2021-08-01 08:04:01+00:00,249.0,8.61,252.0,9.73,12.57,47.59359,-54.27349
2021-08-01 08:14:01+00:00,255.0,7.87,252.0,8.71,12.49,47.59359,-54.27349
2021-08-01 08:24:01+00:00,247.0,7.49,252.0,8.39,12.49,47.59359,-54.27349
2021-08-01 08:34:01+00:00,252.0,9.3,254.0,10.28,12.49,47.59359,-54.27349
2021-08-01 08:44:01+00:00,238.0,7.22,241.0,7.79,12.49,47.59359,-54.27349
2021-08-01 08:54:01+00:00,228.0,7.2,230.0,8.59,12.49,47.59359,-54.27349
2021-08-01 09:04:01+00:00,230.0,8.36,236.0,10.18,12.49,47.59359,-54.27349
2021-08-01 09:14:00+00:00,220.0,7.75,219.0,9.0,12.65,47.59359,-54.27349
2021-08-01 09:24:00+00:00,228.0,6.88,228.0,8.29,12.65,47.59359,-54.27349
2021-08-01 09:34:00+00:00,216.0,7.72,217.0,8.57,12.65,47.59359,-54.27349
2021-08-01 09:44:00+00:00,209.0,7.55,212.0,9.13,12.65,47.59359,-54.27349
2021-08-01 09:54:00+00:00,203.0,8.69,205.0,9.72,12.65,47.59359,-54.27349
2021-08-01 10:04:00+00:00,209.0,8.86,210.0,9.96,12.65,47.59359,-54.27349
2021-08-01 10:14:01+00:00,209.0,8.04,204.0,8.94,13.37,47.59359,-54.27349
2021-08-01 10:24:01+00:00,209.0,9.11,208.0,9.92,13.37,47.59359,-54.27349
2021-08-01 10:34:01+00:00,212.0,8.48,212.0,9.84,13.37,47.59359,-54.27349
2021-08-01 10:44:01+00:00,211.0,8.02,208.0,9.15,13.37,47.59359,-54.27349
2021-08-01 10:54:01+00:00,210.0,8.46,211.0,10.18,13.37,47.59359,-54.27349
2021-08-01 11:04:01+00:00,207.0,8.49,206.0,9.82,13.37,47.59359,-54.27349
2021-08-01 11:14:01+00:00,208.0,8.5,211.0,9.96,13.84,47.59359,-54.27349
2021-08-01 11:24:01+00:00,210.0,8.69,210.0,9.71,13.84,47.59359,-54.27349
2021-08-01 11:34:01+00:00,207.0,8.64,205.0,9.31,13.84,47.59359,-54.27349
2021-08-01 11:44:01+00:00,207.0,9.35,211.0,10.11,13.84,47.59359,-54.27349
2021-08-01 11:54:01+00:00,204.0,8.69,207.0,9.91,13.84,47.59359,-54.27349
2021-08-01 12:04:01+00:00,205.0,8.91,207.0,10.27,13.84,47.59359,-54.27349
2021-08-01 12:14:01+00:00,205.0,9.59,210.0,11.13,13.84,47.59359,-54.27349
2021-08-01 12:24:01+00:00,206.0,10.04,206.0,10.98,13.84,47.59359,-54.27349
2021-08-01 12:34:01+00:00,209.0,9.76,210.0,10.67,13.84,47.59359,-54.27349
2021-08-01 12:44:01+00:00,208.0,9.05,208.0,9.97,13.84,47.59359,-54.27349
2021-08-01 12:54:01+00:00,207.0,9.73,209.0,11.32,13.84,47.59359,-54.27349
2021-08-01 13:04:01+00:00,209.0,9.75,210.0,10.93,13.84,47.59359,-54.27349
2021-08-01 13:14:01+00:00,208.0,11.45,211.0,13.19,14.32,47.59359,-54.27349
2021-08-01 13:24:01+00:00,207.0,11.24,208.0,12.53,14.32,47.59359,-54.27349
2021-08-01 13:34:01+00:00,205.0,11.21,207.0,12.45,14.32,47.59359,-54.27349
2021-08-01 13:44:01+00:00,210.0,11.09,211.0,12.68,14.32,47.59359,-54.27349
2021-08-01 13:54:01+00:00,207.0,10.36,204.0,11.39,14.32,47.59359,-54.27349
2021-08-01 14:04:01+00:00,209.0,11.04,208.0,12.21,14.32,47.59359,-54.27349
2021-08-01 14:14:01+00:00,209.0,10.67,210.0,11.65,14.24,47.59359,-54.27349
2021-08-01 14:24:01+00:00,209.0,10.11,210.0,11.92,14.24,47.59359,-54.27349
2021-08-01 14:34:01+00:00,205.0,10.14,205.0,11.53,14.24,47.59359,-54.27349
2021-08-01 14:44:01+00:00,206.0,10.49,207.0,11.68,14.24,47.59359,-54.27349
2021-08-01 14:54:01+00:00,204.0,11.11,206.0,12.72,14.24,47.59359,-54.27349
2021-08-01 15:04:01+00:00,208.0,10.4,210.0,12.39,14.24,47.59359,-54.27349
2021-08-01 15:14:01+00:00,206.0,11.56,205.0,12.58,14.32,47.59359,-54.27349
2021-08-01 15:24:01+00:00,206.0,10.79,209.0,12.09,14.32,47.59359,-54.27349
2021-08-01 15:34:01+00:00,205.0,10.33,207.0,11.4,14.32,47.59359,-54.27349
2021-08-01 15:44:01+00:00,205.0,10.32,207.0,11.19,14.32,47.59359,-54.27349
2021-08-01 15:54:01+00:00,203.0,9.26,206.0,10.55,14.32,47.59359,-54.27349
2021-08-01 16:04:01+00:00,209.0,10.62,204.0,11.75,14.32,47.59359,-54.27349
2021-08-01 16:14:01+00:00,206.0,10.76,205.0,11.58,14.24,47.59359,-54.27349
2021-08-01 16:24:01+00:00,206.0,11.24,207.0,13.55,14.24,47.59359,-54.27349
2021-08-01 16:34:01+00:00,208.0,12.33,208.0,14.28,14.24,47.59359,-54.27349
2021-08-01 16:44:01+00:00,208.0,11.83,209.0,13.05,14.24,47.59359,-54.27349
2021-08-01 16:54:01+00:00,206.0,11.01,207.0,12.47,14.24,47.59359,-54.27349
2021-08-01 17:04:01+00:00,210.0,12.54,210.0,14.46,14.24,47.59359,-54.27349
2021-08-01 17:14:01+00:00,209.0,11.23,207.0,12.5,14.16,47.59359,-54.27349
2021-08-01 17:24:01+00:00,209.0,10.77,213.0,11.6,14.16,47.59359,-54.27349
2021-08-01 17:34:01+00:00,210.0,10.77,210.0,11.94,14.16,47.59359,-54.27349
2021-08-01 17:44:01+00:00,210.0,11.13,212.0,12.49,14.16,47.59359,-54.27349
2021-08-01 17:54:01+00:00,209.0,10.67,210.0,11.93,14.16,47.59359,-54.27349
2021-08-01 18:04:01+00:00,206.0,11.12,206.0,13.05,14.16,47.59359,-54.27349
2021-08-01 18:14:01+00:00,209.0,11.89,208.0,13.34,13.92,47.59359,-54.27349
2021-08-01 18:24:01+00:00,211.0,11.29,216.0,13.02,13.92,47.59359,-54.27349
2021-08-01 18:34:01+00:00,211.0,11.99,208.0,13.29,13.92,47.59359,-54.27349
2021-08-01 18:44:01+00:00,210.0,11.28,217.0,13.61,13.92,47.59359,-54.27349
2021-08-01 18:54:01+00:00,210.0,12.25,211.0,13.8,13.92,47.59359,-54.27349
2021-08-01 19:04:01+00:00,209.0,12.63,205.0,15.41,13.92,47.59359,-54.27349
2021-08-01 19:14:01+00:00,211.0,11.9,213.0,13.53,13.68,47.59359,-54.27349
2021-08-01 19:24:01+00:00,212.0,12.3,213.0,13.88,13.68,47.59359,-54.27349
2021-08-01 19:34:01+00:00,211.0,11.51,207.0,13.04,13.68,47.59359,-54.27349
2021-08-01 19:44:01+00:00,211.0,11.43,209.0,13.03,13.68,47.59359,-54.27349
2021-08-01 19:54:01+00:00,209.0,10.73,210.0,12.35,13.68,47.59359,-54.27349
2021-08-01 20:04:01+00:00,211.0,10.56,213.0,11.76,13.68,47.59359,-54.27349
2021-08-01 20:14:01+00:00,212.0,10.66,211.0,12.39,13.84,47.59359,-54.27349
2021-08-01 20:24:01+00:00,213.0,10.09,214.0,11.07,13.84,47.59359,-54.27349
2021-08-01 20:34:01+00:00,207.0,9.8,209.0,10.69,13.84,47.59359,-54.27349
2021-08-01 20:44:01+00:00,209.0,9.29,212.0,10.2,13.84,47.59359,-54.27349
2021-08-01 20:54:01+00:00,205.0,9.58,208.0,10.38,13.84,47.59359,-54.27349
2021-08-01 21:04:01+00:00,213.0,9.6,214.0,10.5,13.84,47.59359,-54.27349
2021-08-01 21:14:01+00:00,207.0,9.56,210.0,10.61,13.68,47.59359,-54.27349
2021-08-01 21:24:01+00:00,207.0,9.85,208.0,11.05,13.68,47.59359,-54.27349
2021-08-01 21:34:01+00:00,210.0,10.09,219.0,11.33,13.68,47.59359,-54.27349
2021-08-01 21:44:01+00:00,211.0,9.78,211.0,10.62,13.68,47.59359,-54.27349
2021-08-01 21:54:01+00:00,210.0,9.43,214.0,10.48,13.68,47.59359,-54.27349
2021-08-01 22:04:01+00:00,207.0,9.75,210.0,10.87,13.68,47.59359,-54.27349
2021-08-01 22:14:01+00:00,209.0,10.36,209.0,11.27,13.53,47.59359,-54.27349
2021-08-01 22:24:01+00:00,210.0,10.08,215.0,11.61,13.53,47.59359,-54.27349
2021-08-01 22:34:01+00:00,212.0,10.68,213.0,11.83,13.53,47.59359,-54.27349
2021-08-01 22:44:01+00:00,214.0,9.75,211.0,10.9,13.53,47.59359,-54.27349
2021-08-01 22:54:01+00:00,214.0,8.34,214.0,9.33,13.53,47.59359,-54.27349
2021-08-01 23:04:01+00:00,212.0,9.63,212.0,10.4,13.53,47.59359,-54.27349
2021-08-01 23:14:00+00:00,213.0,8.19,218.0,9.38,13.13,47.59359,-54.27349
2021-08-01 23:24:00+00:00,215.0,8.07,216.0,8.97,13.13,47.59359,-54.27349
2021-08-01 23:34:00+00:00,224.0,7.44,232.0,8.36,13.13,47.59359,-54.27349
2021-08-01 23:44:00+00:00,226.0,7.68,224.0,9.45,13.13,47.59359,-54.27349
2021-08-01 23:54:00+00:00,228.0,7.05,232.0,8.19,13.13,47.59359,-54.27349
